Skip Page Navigation
NASA JPL Caltech
NASA Logo - Jet Propulsion Laboratory + View the NASA Portal
+ Center for Near-Earth Object Studies
JPL Home Earth Solar System Stars & Galaxies Technology
JPL Solar System Dynamics
BODIES ORBITS EPHEMERIDES TOOLS PHYSICAL DATA DISCOVERY FAQ SITE MAP
JPL Small-Body Database Browser
Search: [ help ]  
312219 (2007 VG334)
Classification: Main-belt Asteroid          SPK-ID: 2312219
Ephemeris | Orbit Diagram | Orbital Elements | Mission Design | Physical Parameters | Discovery Circumstances | Close-Approach Data ]

[ show orbit diagram ]
Orbital Elements at Epoch 2459000.5 (2020-May-31.0) TDB
Reference: JPL 15 (heliocentric ecliptic J2000)
 Element Value Uncertainty (1-sigma)   Units 
e .2628559185849773 9.4643e-08  
a 2.440710394688394 3.1045e-08 au
q 1.799155221892674 2.1242e-07 au
i 25.36235864350722 5.9343e-06 deg
node 102.8611783557358 1.6857e-05 deg
peri 11.42876201402858 2.821e-05 deg
M 68.49703593644988 2.6027e-05 deg
tp 2458735.502314399880
(2019-Sep-09.00231440)
9.6272e-05 TDB
period 1392.748832293306
3.81
2.6573e-05
7.275e-08
d
yr
n .2584816383634819 4.9317e-09 deg/d
Q 3.082265567484114 3.9206e-08 au
  Orbit Determination Parameters
   # obs. used (total)      454  
   data-arc span      6969 days (19.08 yr)  
   first obs. used      2001-03-31  
   last obs. used      2020-04-29  
   planetary ephem.      DE431  
   SB-pert. ephem.      SB431-N16  
   condition code      0  
   norm. resid. RMS      .54414  
   source      ORB  
   producer      Otto Matic  
   solution date      2020-May-21 20:26:59  

Additional Information
 Earth MOID = .819769 au 
 Jupiter MOID = 2.08874 au 
 T_jup = 3.326 
[ show covariance matrix ]

Ephemeris | Orbit Diagram | Orbital Elements | Mission Design | Physical Parameters | Discovery Circumstances | Close-Approach Data ]

Physical Parameter Table
Parameter Symbol Value Units Sigma Reference Notes
absolute magnitude H 16.0   n/a MPO455301  

312219 (2007 VG334)          Discovered 2007-Nov-13 by CSS at Catalina
Reference: 20120109/Numbers.arcLast Updated: 2012-01-11

[ show close-approach data ]
Ephemeris | Orbit Diagram | Orbital Elements | Mission Design | Physical Parameters | Discovery Circumstances | Close-Approach Data ]
ABOUT SSD CREDITS/AWARDS PRIVACY/COPYRIGHT GLOSSARY LINKS
FirstGov 2020-Aug-06 14:22 UT
(server date/time)  
NASA Home Page
Site Manager:   Ryan S. Park
Webmaster  Alan B. Chamberlin